Location: Brunembert
(50.7122°N, 1.8935°E)
Time: 10:20:05
(UTC+00:00)

Cosmos 2084 Rocket - Pass Details

Date: 22 April 2021
Orbit: 525 x 655 km, 62.8° (Epoch: 05 May)

Event Time Altitude Azimuth Distance (km) Brightness Sun altitude
Rises 20:55:14 0° 222° (SW) 2,651 6.8 -16.1°
Reaches altitude 10° 20:57:23 10° 221° (SW) 1,771 5.9 -16.4°
Maximum altitude 21:01:21 85° 137° (SE) 544 3.1 -16.8°
Drops below altitude 10° 21:05:27 10° 46° (NE) 1,825 6.0 -17.3°
Sets 21:07:42 0° 46° (NE) 2,740 6.9 -17.5°
